Wahpeton, MN

8:50 AM CST on November 15, 2019 (GMT -0600)
Stern

Weather History for KBWP - September, 2019

Change the Weather History Date:

Thursday, September 26, 2019

  Actual Average (WUND) Record (WUND)
Temperature  
Mean Temperature 52 °F -  
Max Temperature 62 °F - - (-1)
Min Temperature 41 °F - - (-1)
Degree Days  
Heating Degree Days 14    
Growing Degree Days 2 (Base 50)    
Moisture  
Dew Point 41 °F    
Average Humidity 68    
Maximum Humidity 93    
Minimum Humidity 45    
Precipitation  
Precipitation 0.00 in - - ()
Sea Level Pressure  
Sea Level Pressure 29.81 in    
Wind  
Wind Speed 8 mph ()    
Max Wind Speed 13 mph    
Max Gust Speed 16 mph    
Visibility 10.0 miles    
Events      
Averages and records for this station are not official NWS values.
T = Trace of Precipitation, MM = Missing Value Source: Averaged Metar Reports

Daily Weather History Graph

Daily Weather History Graph

Search for Another Location

Airport or City:

Astronomy

Sep. 26, 2019 Rise Set
Actual Time 7:18 AM CDT 7:16 PM CDT
Civil Twilight 6:48 AM CDT 7:46 PM CDT
Nautical Twilight 6:13 AM CDT 8:21 PM CDT
Astronomical Twilight 5:37 AM CDT 8:57 PM CDT
Moon 4:12 AM CDT (9/26) 6:41 PM CDT (9/26)
Length of Visible Light 12h 58m
Length of Day
11h 58m
Waning Crescent, 6% of the Moon is Illuminated
Sep 26
Waning Crescent
Sep 28
New
Oct 5
First Quarter
Oct 13
Full
Oct 21
Last Quarter

Hourly Weather History & Observations

Time (CDT) Temp. Windchill Dew Point Humidity Pressure Visibility Wind Dir Wind Speed Gust Speed Precip Events Conditions
12:15 AM 46.4 °F 42.4 °F 41.0 °F 81% 29.88 in 10.0 mi West 8.1 mph - N/A   Unknown
12:35 AM 48.2 °F - 41.0 °F 76% 29.88 in 10.0 mi West 12.7 mph - N/A   Unknown
12:55 AM 48.2 °F - 41.0 °F 76% 29.88 in 10.0 mi West 11.5 mph - N/A   Unknown
1:15 AM 48.2 °F - 41.0 °F 76% 29.88 in 10.0 mi West 10.4 mph - N/A   Unknown
1:35 AM 46.4 °F 41.5 °F 41.0 °F 81% 29.89 in 10.0 mi West 10.4 mph - N/A   Unknown
1:55 AM 46.4 °F 41.9 °F 41.0 °F 81% 29.89 in 10.0 mi West 9.2 mph - N/A   Unknown
2:15 AM 44.6 °F 40.7 °F 41.0 °F 87% 29.88 in 10.0 mi West 6.9 mph - N/A   Unknown
2:35 AM 44.6 °F 41.4 °F 39.2 °F 81% 29.88 in 10.0 mi West 5.8 mph - N/A   Unknown
2:55 AM 44.6 °F 41.4 °F 39.2 °F 81% 29.88 in 10.0 mi West 5.8 mph - N/A   Unknown
3:15 AM 42.8 °F 38.0 °F 39.2 °F 87% 29.88 in 10.0 mi West 8.1 mph - N/A   Unknown
3:35 AM 42.8 °F 40.1 °F 39.2 °F 87% 29.88 in 10.0 mi West 4.6 mph - N/A   Unknown
3:55 AM 42.8 °F 39.3 °F 37.4 °F 81% 29.87 in 10.0 mi West 5.8 mph - N/A   Unknown
4:15 AM 42.8 °F 40.1 °F 39.2 °F 87% 29.87 in 10.0 mi WSW 4.6 mph - N/A   Unknown
4:35 AM 42.8 °F 38.6 °F 37.4 °F 81% 29.87 in 10.0 mi West 6.9 mph - N/A   Unknown
4:55 AM 42.8 °F 38.0 °F 39.2 °F 87% 29.87 in 10.0 mi WSW 8.1 mph - N/A   Unknown
5:15 AM 42.8 °F 38.6 °F 41.0 °F 93% 29.87 in 10.0 mi WSW 6.9 mph - N/A   Unknown
5:35 AM 44.6 °F 40.2 °F 41.0 °F 87% 29.87 in 10.0 mi SW 8.1 mph - N/A   Unknown
5:55 AM 42.8 °F 39.3 °F 39.2 °F 87% 29.87 in 10.0 mi WSW 5.8 mph - N/A   Unknown
6:15 AM 42.8 °F 41.1 °F 39.2 °F 87% 29.86 in 10.0 mi WSW 3.5 mph - N/A   Unknown
6:35 AM 42.8 °F 41.1 °F 37.4 °F 81% 29.85 in 10.0 mi SW 3.5 mph - N/A   Unknown
6:55 AM 42.8 °F 41.1 °F 37.4 °F 81% 29.85 in 10.0 mi South 3.5 mph - N/A   Unknown
7:15 AM 41.0 °F 39.0 °F 37.4 °F 87% 29.85 in 10.0 mi SSW 3.5 mph - N/A   Unknown
7:35 AM 42.8 °F 40.1 °F 39.2 °F 87% 29.84 in 10.0 mi SSW 4.6 mph - N/A   Unknown
7:55 AM 44.6 °F 41.4 °F 39.2 °F 81% 29.85 in 10.0 mi SW 5.8 mph - N/A   Unknown
8:35 AM 46.4 °F 42.9 °F 42.8 °F 87% 29.85 in 10.0 mi SW 6.9 mph - N/A   Unknown
8:55 AM 48.2 °F - 42.8 °F 82% 29.84 in 10.0 mi SSW 4.6 mph - N/A   Unknown
9:15 AM 50.0 °F - 42.8 °F 76% 29.84 in 10.0 mi SW 5.8 mph - N/A   Unknown
9:35 AM 51.8 °F - 42.8 °F 71% 29.84 in 10.0 mi WSW 9.2 mph - N/A   Unknown
9:55 AM 53.6 °F - 42.8 °F 67% 29.84 in 10.0 mi WSW 9.2 mph - N/A   Unknown
10:15 AM 55.4 °F - 42.8 °F 63% 29.84 in 10.0 mi WSW 10.4 mph - N/A   Unknown
10:35 AM 57.2 °F - 42.8 °F 59% 29.84 in 10.0 mi SW 11.5 mph - N/A   Unknown
10:55 AM 57.2 °F - 42.8 °F 59% 29.84 in 10.0 mi SW 11.5 mph - N/A   Unknown
11:15 AM 59.0 °F - 41.0 °F 51% 29.83 in 10.0 mi SW 12.7 mph - N/A   Unknown
11:35 AM 60.8 °F - 41.0 °F 48% 29.82 in 10.0 mi SW 11.5 mph 16.1 mph N/A   Unknown
11:55 AM 60.8 °F - 41.0 °F 48% 29.81 in 10.0 mi SW 9.2 mph - N/A   Unknown
12:15 PM 60.8 °F - 41.0 °F 48% 29.81 in 10.0 mi WSW 12.7 mph - N/A   Unknown
12:35 PM 62.6 °F - 41.0 °F 45% 29.80 in 10.0 mi SW 11.5 mph - N/A   Unknown
12:55 PM 62.6 °F - 41.0 °F 45% 29.79 in 10.0 mi SW 12.7 mph - N/A   Unknown
1:15 PM 62.6 °F - 41.0 °F 45% 29.79 in 10.0 mi SSW 9.2 mph - N/A   Unknown
1:35 PM 62.6 °F - 41.0 °F 45% 29.78 in 10.0 mi SSW 9.2 mph - N/A   Unknown
1:55 PM 60.8 °F - 42.8 °F 52% 29.76 in 10.0 mi SSW 9.2 mph - N/A   Unknown
2:15 PM 60.8 °F - 41.0 °F 48% 29.76 in 10.0 mi SSW 9.2 mph - N/A   Unknown
2:35 PM 60.8 °F - 42.8 °F 52% 29.74 in 10.0 mi SSW 11.5 mph - N/A   Unknown
2:55 PM 62.6 °F - 42.8 °F 48% 29.72 in 10.0 mi South 9.2 mph - N/A   Unknown
3:15 PM 60.8 °F - 42.8 °F 52% 29.70 in 10.0 mi South 10.4 mph - N/A   Unknown
3:35 PM 60.8 °F - 42.8 °F 52% 29.68 in 10.0 mi SSE 9.2 mph - N/A   Unknown
3:55 PM 60.8 °F - 42.8 °F 52% 29.67 in 10.0 mi SSE 8.1 mph - N/A   Unknown
4:15 PM 60.8 °F - 41.0 °F 48% 29.65 in 10.0 mi SSE 8.1 mph - N/A   Unknown
4:35 PM 60.8 °F - 42.8 °F 52% 29.64 in 10.0 mi SE 10.4 mph - N/A   Unknown
4:55 PM 60.8 °F - 42.8 °F 52% 29.62 in 10.0 mi SE 9.2 mph - N/A   Unknown
5:15 PM 60.8 °F - 44.6 °F 55% 29.61 in 10.0 mi ESE 8.1 mph - N/A   Unknown
5:35 PM 60.8 °F - 44.6 °F 55% 29.60 in 10.0 mi ESE 9.2 mph - N/A   Unknown
5:55 PM 59.0 °F - 44.6 °F 59% 29.61 in 10.0 mi ESE 8.1 mph - N/A   Unknown